Regional Weather Roundup
Issued by NWS Green Bay, WI

Home | Current Version | Previous Version | Text Only | Print | Product List | Glossary On
Versions: 1 2 3 4 5 6 7 8 9 10 11 12 13 14 15 16 17 18 19 20 21 22 23 24 25 26 27 28 29 30 31 32 33 34 35 36 37 38 39 40 41 42 43 44 45 46 47 48 49 50
000
ASUS43 KGRB 191000
RWRGRB

NORTH-CENTRAL AND NORTHEAST WISCONSIN REGIONAL WEATHER ROUNDUP
NATIONAL WEATHER SERVICE GREEN BAY WI
400 AM CST SUN FEB 19 2017

WIZ005-009-010>012-018-019-191100-
NORTH CENTRAL WISCONSIN

CITY           SKY/WX    TMP DP  RH WIND       PRES   REMARKS
IRONWOOD       CLOUDY    31  28  89 CALM      29.90R
MANITOWISH WTR NOT AVBL
ARBOR VITAE    NOT AVBL
EAGLE RIVER    NOT AVBL
LAND O LAKES   CLEAR     29  25  86 CALM      29.90R
RHINELANDER    CLEAR     41  30  65 NW6       29.89R
PHILLIPS       CLOUDY    28  28  98 CALM      29.89S
ANTIGO         NOT AVBL
TOMAHAWK       NOT AVBL
MERRILL        NOT AVBL
$$

WIZ013-073-191100-
NORTHEAST WISCONSIN

CITY           SKY/WX    TMP DP  RH WIND       PRES   REMARKS
IRON MOUNTAIN  CLOUDY    39  26  59 NW5       29.86R
MARINETTE      CLOUDY    42  29  59 NW3       29.87R
$$

WIZ017-030-035>037-045-191100-
CENTRAL WISCONSIN

CITY           SKY/WX    TMP DP  RH WIND       PRES   REMARKS
MEDFORD        NOT AVBL
WAUSAU         CLEAR     35  31  85 CALM      29.89R
MOSINEE        NOT AVBL
MARSHFIELD     CLEAR     37  31  78 CALM      29.90R
WISC RAPIDS    CLEAR     30  28  92 CALM      29.93R
STEVENS POINT  NOT AVBL
WAUPACA        CLOUDY    40  32  73 CALM      29.91R
SHAWANO        CLOUDY    42  32  68 SW3       29.89R
CLINTONVILLE   PTCLDY    41  32  70 W3        29.89R
WAUTOMA        PTCLDY    33  29  85 CALM      29.93R
$$

WIZ038-039-048-051-191100-
FOX VALLEY

CITY           SKY/WX    TMP DP  RH WIND       PRES   REMARKS
NWS GREEN BAY  CLOUDY    37  33  85 S3        29.89R
APPLETON       NOT AVBL
OSHKOSH        CLOUDY    40  30  67 W7        29.91R
FOND DU LAC    CLOUDY    33  28  81 S3        29.92R
$$

WIZ022-050-052-191100-
EAST CENTRAL WISCONSIN

CITY           SKY/WX    TMP DP  RH WIND       PRES   REMARKS
EPHRAIM        NOT AVBL
WASHINGTON ISL FAIR      37  30  74 W5        29.86R
STURGEON BAY   PTCLDY    42  30  62 W8        29.88R
MANITOWOC      NOT AVBL
SHEBOYGAN      PTCLDY    41  30  65 W7        29.90R
$$

LMZ563-521-522-541>543-191100-
LAKESHORE

STATION/POSITION TIME  TEMP    WIND        PRES    VSBY  WAVE
                       AIR SEA DIR/SP/G                  HT/PER
                 (UTC) (F)     (DEG/KT/KT) (MB)    (MI)  (FT/S)
SHEBOYGAN LKSHOR 0900   48     280/  9/ 10 1011.6R
KEWAUNEE LKSHORE 0930   44     290/  7/  9 1010.8R
NORTHPORT PIER   0940   42     240/  3/  7 1011.2R
CHAMBERS ISLAND  0940   42     240/  4/  7 1010.8R
MENOMINEE LKSHOR 0930   44     290/  5/  7 1010.2R
$$




USA.gov is the U.S. government's official web portal to all federal, state and local government web resources and services.